CW5020 Weather Reports


Display with metric or nautical units.
time (UTC)temp
F
wind
direction
speed
MPH
gust
MPH
rain 1hr
in
rain 24hr
in
rain mn
in
humidity
%
barometer
mb
20260510205007 68 165 3.0 11.0 0.00 0.00 0.00 26 1018.2
20260510204506 68 271 3.0 11.0 0.00 0.00 0.00 28 1018.3
20260510204007 67 243 2.0 8.0 0.00 0.00 0.00 30 1018.4
20260510203505 67 272 2.0 7.0 0.00 0.00 0.00 28 1018.5
20260510202505 65 285 2.0 9.0 0.00 0.00 0.00 28 1018.6
20260510202006 65 17 2.0 8.0 0.00 0.00 0.00 28 1018.7
20260510201509 65 221 1.0 5.0 0.00 0.00 0.00 29 1018.7
20260510201007 65 286 2.0 8.0 0.00 0.00 0.00 29 1018.9
20260510200505 65 288 2.0 9.0 0.00 0.00 0.00 33 1018.9
20260510200009 65 302 2.0 9.0 0.00 0.00 0.00 31 1018.8
20260510195506 65 16 2.0 5.0 0.00 0.00 0.00 33 1018.9
20260510195005 65 288 2.0 7.0 0.00 0.00 0.00 28 1018.8
20260510194505 64 279 2.0 9.0 0.00 0.00 0.00 36 1018.7
20260510194006 63 267 2.0 9.0 0.00 0.00 0.00 34 1018.8
20260510193006 64 276 3.0 11.0 0.00 0.00 0.00 31 1018.7
20260510192005 63 273 3.0 9.0 0.00 0.00 0.00 35 1018.5
20260510191505 63 246 2.0 9.0 0.00 0.00 0.00 34 1018.7
20260510191004 64 300 2.0 9.0 0.00 0.00 0.00 31 1018.7
20260510190505 64 277 2.0 9.0 0.00 0.00 0.00 28 1018.8
20260510190008 64 44 2.0 8.0 0.00 0.00 0.00 34 1018.7
20260510185505 64 273 2.0 8.0 0.00 0.00 0.00 32 1018.8
20260510185007 64 273 2.0 8.0 0.00 0.00 0.00 28 1018.8
20260510184505 64 279 2.0 9.0 0.00 0.00 0.00 30 1019.0
20260510184012 63 282 2.0 6.0 0.00 0.00 0.00 30 1018.8
20260510183006 64 261 2.0 8.0 0.00 0.00 0.00 32 1018.8
20260510182507 63 278 2.0 8.0 0.00 0.00 0.00 34 1018.8
20260510182007 62 288 3.0 7.0 0.00 0.00 0.00 32 1018.8
20260510181505 62 286 3.0 13.0 0.00 0.00 0.00 33 1018.7
20260510181007 62 321 2.0 13.0 0.00 0.00 0.00 28 1018.7
20260510180506 62 9 2.0 8.0 0.00 0.00 0.00 33 1018.7
20260510180005 61 221 2.0 6.0 0.00 0.00 0.00 30 1018.7
20260510175504 61 271 2.0 11.0 0.00 0.00 0.00 30 1018.8
20260510175008 62 62 2.0 11.0 0.00 0.00 0.00 32 1018.8
20260510174506 62 267 2.0 6.0 0.00 0.00 0.00 36 1018.8
20260510174006 61 321 2.0 7.0 0.00 0.00 0.00 34 1018.9
20260510173006 60 274 1.0 7.0 0.00 0.00 0.00 34 1018.9
20260510172506 61 70 2.0 8.0 0.00 0.00 0.00 31 1019.0
20260510172005 60 278 3.0 8.0 0.00 0.00 0.00 35 1018.9
20260510171505 60 271 2.0 8.0 0.00 0.00 0.00 36 1019.0
20260510171005 60 315 2.0 10.0 0.00 0.00 0.00 34 1018.9
20260510170005 61 274 2.0 7.0 0.00 0.00 0.00 34 1018.9
20260510165505 61 275 2.0 11.0 0.00 0.00 0.00 37 1018.9
20260510165006 61 303 4.0 11.0 0.00 0.00 0.00 33 1019.0
20260510164505 61 227 4.0 11.0 0.00 0.00 0.00 35 1019.0
20260510164006 61 269 2.0 9.0 0.00 0.00 0.00 32 1018.9
20260510163504 60 269 1.0 9.0 0.00 0.00 0.00 36 1018.8
20260510163006 60 313 2.0 9.0 0.00 0.00 0.00 34 1018.7
20260510162506 60 271 3.0 11.0 0.00 0.00 0.00 37 1018.6
20260510162005 59 45 2.0 11.0 0.00 0.00 0.00 34 1018.6
20260510161504 59 325 2.0 8.0 0.00 0.00 0.00 36 1018.6
20260510161006 60 285 2.0 9.0 0.00 0.00 0.00 36 1018.6
20260510160505 59 277 1.0 9.0 0.00 0.00 0.00 36 1018.3
20260510160006 59 200 2.0 8.0 0.00 0.00 0.00 34 1018.3
20260510155005 59 50 0.0 3.0 0.00 0.00 0.00 35 1018.3
20260510154505 59 316 1.0 4.0 0.00 0.00 0.00 38 1018.2
20260510154008 58 227 1.0 5.0 0.00 0.00 0.00 38 1018.3
20260510153506 58 222 1.0 5.0 0.00 0.00 0.00 36 1018.4
20260510153006 59 248 1.0 4.0 0.00 0.00 0.00 38 1018.3
20260510152505 58 268 1.0 4.0 0.00 0.00 0.00 35 1018.5
20260510152007 58 229 1.0 4.0 0.00 0.00 0.00 39 1018.4
20260510151506 58 200 1.0 4.0 0.00 0.00 0.00 37 1018.4
20260510151007 58 188 1.0 3.0 0.00 0.00 0.00 38 1018.4
20260510150506 58 132 1.0 3.0 0.00 0.00 0.00 38 1018.4
20260510150007 57 56 0.0 2.0 0.00 0.00 0.00 40 1018.3
20260510145505 57 56 0.0 2.0 0.00 0.00 0.00 41 1018.3
20260510145005 56 55 1.0 3.0 0.00 0.00 0.00 37 1018.2
20260510143505 56 57 0.0 2.0 0.00 0.00 0.00 35 1018.3
20260510143006 55 57 1.0 3.0 0.00 0.00 0.00 40 1018.2
20260510142507 55 55 0.0 3.0 0.00 0.00 0.00 36 1018.2
20260510142006 55 50 0.0 2.0 0.00 0.00 0.00 42 1018.2
20260510141505 54 50 0.0 2.0 0.00 0.00 0.00 40 1018.1
20260510141004 54 50 0.0 3.0 0.00 0.00 0.00 41 1018.2
20260510140506 54 50 0.0 3.0 0.00 0.00 0.00 39 1018.2
20260510140008 54 60 0.0 3.0 0.00 0.00 0.00 41 1018.1
20260510135006 53 66 0.0 1.0 0.00 0.00 0.00 40 1018.0
20260510134505 53 66 1.0 3.0 0.00 0.00 0.00 43 1017.9
20260510134004 53 66 1.0 4.0 0.00 0.00 0.00 43 1017.8
20260510133506 53 53 0.0 2.0 0.00 0.00 0.00 43 1017.8
20260510133007 53 46 0.0 3.0 0.00 0.00 0.00 42 1017.7
20260510132007 52 58 0.0 2.0 0.00 0.00 0.00 43 1017.7
20260510131506 52 62 0.0 2.0 0.00 0.00 0.00 48 1017.6
20260510131005 51 62 0.0 3.0 0.00 0.00 0.00 46 1017.6
20260510130505 50 52 0.0 2.0 0.00 0.00 0.00 50 1017.5
20260510130008 50 55 0.0 2.0 0.00 0.00 0.00 51 1017.6
20260510125505 49 53 0.0 2.0 0.00 0.00 0.00 52 1017.6
20260510125005 48 54 0.0 2.0 0.00 0.00 0.00 59 1017.5
20260510124504 48 54 0.0 2.0 0.00 0.00 0.00 56 1017.5
20260510124006 47 55 0.0 0.0 0.00 0.00 0.00 59 1017.3
20260510123504 47 55 0.0 1.0 0.00 0.00 0.00 61 1017.1
20260510123006 46 55 0.0 1.0 0.00 0.00 0.00 62 1017.1
20260510122504 46 55 0.0 1.0 0.00 0.00 0.00 64 1017.0
20260510121005 44 55 0.0 1.0 0.00 0.00 0.00 71 1016.9
20260510120008 42 55 0.0 2.0 0.00 0.00 0.00 72 1016.7
20260510115504 42 55 0.0 1.0 0.00 0.00 0.00 74 1016.8
20260510115007 41 55 0.0 1.0 0.00 0.00 0.00 75 1016.7
20260510114007 41 55 0.0 1.0 0.00 0.00 0.00 76 1016.5
20260510113006 40 55 0.0 1.0 0.00 0.00 0.00 77 1016.3
20260510112504 40 55 0.0 0.0 0.00 0.00 0.00 78 1016.3
20260510112005 40 55 0.0 0.0 0.00 0.00 0.00 77 1016.3
20260510111505 39 55 0.0 0.0 0.00 0.00 0.00 78 1016.3
20260510111007 39 55 0.0 0.0 0.00 0.00 0.00 78 1016.2
20260510110505 39 55 0.0 0.0 0.00 0.00 0.00 77 1016.1
20260510110007 39 55 0.0 0.0 0.00 0.00 0.00 76 1016.0
20260510105505 39 55 0.0 0.0 0.00 0.00 0.00 75 1015.8
20260510105006 39 55 0.0 0.0 0.00 0.00 0.00 74 1015.8
20260510104504 39 55 0.0 0.0 0.00 0.00 0.00 75 1015.7
20260510104006 40 55 0.0 0.0 0.00 0.00 0.00 75 1015.6
20260510103505 40 55 0.0 0.0 0.00 0.00 0.00 74 1015.6
20260510103008 40 55 0.0 0.0 0.00 0.00 0.00 73 1015.6
20260510102005 40 55 0.0 0.0 0.00 0.00 0.00 73 1015.5
20260510101505 41 55 0.0 0.0 0.00 0.00 0.00 73 1015.5
20260510100505 41 55 0.0 0.0 0.00 0.00 0.00 71 1015.4
20260510100006 41 55 0.0 0.0 0.00 0.00 0.00 72 1015.3
20260510095505 41 55 0.0 0.0 0.00 0.00 0.00 71 1015.3
20260510095005 41 55 0.0 0.0 0.00 0.00 0.00 71 1015.3
20260510093506 41 55 0.0 0.0 0.00 0.00 0.00 72 1015.0
20260510093006 42 55 0.0 0.0 0.00 0.00 0.00 72 1015.2
20260510092504 42 55 0.0 0.0 0.00 0.00 0.00 70 1015.3
20260510092006 42 55 0.0 0.0 0.00 0.00 0.00 68 1015.3
20260510091504 42 55 0.0 0.0 0.00 0.00 0.00 68 1015.3
20260510091007 43 55 0.0 0.0 0.00 0.00 0.00 69 1015.3
20260510090505 43 55 0.0 0.0 0.00 0.00 0.00 67 1015.2
20260510090006 43 55 0.0 0.0 0.00 0.00 0.00 65 1015.1
20260510085505 44 55 0.0 0.0 0.00 0.00 0.00 65 1015.1
20260510085007 44 55 0.0 0.0 0.00 0.00 0.00 64 1014.9
20260510084505 44 55 0.0 0.0 0.00 0.00 0.00 63 1014.9
20260510084005 45 55 0.0 0.0 0.00 0.00 0.00 62 1014.9
20260510083505 45 55 0.0 0.0 0.00 0.00 0.00 62 1014.9
20260510083005 45 55 0.0 0.0 0.00 0.00 0.00 61 1014.8
20260510082505 45 55 0.0 0.0 0.00 0.00 0.00 60 1014.8
20260510082006 46 55 0.0 1.0 0.00 0.00 0.00 60 1014.7
20260510081505 46 55 0.0 1.0 0.00 0.00 0.00 61 1014.6
20260510081006 46 55 0.0 2.0 0.00 0.00 0.00 59 1014.6
20260510080504 46 55 0.0 2.0 0.00 0.00 0.00 59 1014.6
20260510080012 47 55 0.0 3.0 0.00 0.00 0.00 58 1014.5
20260510075504 47 55 1.0 3.0 0.00 0.00 0.00 59 1014.2
20260510075006 47 61 1.0 3.0 0.00 0.00 0.00 57 1014.3
20260510074506 47 57 0.0 3.0 0.00 0.00 0.00 57 1014.2
20260510074010 47 65 0.0 2.0 0.00 0.00 0.00 56 1014.2
20260510073504 48 57 1.0 8.0 0.00 0.00 0.00 57 1014.1
20260510073006 48 56 1.0 8.0 0.00 0.00 0.00 56 1014.0
20260510072505 48 53 1.0 5.0 0.00 0.00 0.00 57 1013.9
20260510071505 48 19 1.0 3.0 0.00 0.00 0.00 59 1013.7
20260510071007 48 55 1.0 4.0 0.00 0.00 0.00 61 1013.7
20260510070006 48 33 1.0 3.0 0.00 0.00 0.00 63 1013.5
20260510065009 47 36 0.0 3.0 0.00 0.00 0.00 66 1013.3
20260510064506 47 36 0.0 3.0 0.00 0.00 0.00 66 1013.3
20260510064005 47 53 0.0 2.0 0.00 0.00 0.00 67 1013.2
20260510063504 46 53 0.0 2.0 0.00 0.00 0.00 69 1013.0
20260510063006 45 51 0.0 3.0 0.00 0.00 0.00 71 1013.0
20260510062504 45 51 0.0 3.0 0.00 0.00 0.00 73 1013.0
20260510062005 45 60 0.0 1.0 0.00 0.00 0.00 75 1012.9
20260510061506 45 60 0.0 1.0 0.00 0.00 0.00 74 1012.8
20260510060505 45 60 0.0 0.0 0.00 0.00 0.00 73 1012.7
20260510060010 45 60 0.0 0.0 0.00 0.00 0.00 72 1012.5
20260510055505 45 60 0.0 0.0 0.00 0.00 0.00 72 1012.6
20260510055008 45 60 0.0 0.0 0.00 0.00 0.00 72 1012.6
20260510054506 45 60 0.0 0.0 0.00 0.00 0.00 71 1012.4
20260510054007 46 60 0.0 0.0 0.00 0.00 0.00 71 1012.4
20260510053505 46 60 0.0 0.0 0.00 0.00 0.00 70 1012.3
20260510053005 46 60 0.0 0.0 0.00 0.00 0.00 70 1012.3
20260510052505 46 60 0.0 0.0 0.00 0.00 0.00 69 1012.2
20260510052006 46 60 0.0 0.0 0.00 0.00 0.00 70 1012.1
20260510051506 47 60 0.0 0.0 0.00 0.00 0.00 69 1012.0
20260510051006 47 60 0.0 0.0 0.00 0.00 0.00 69 1011.9
20260510050507 47 60 0.0 0.0 0.00 0.00 0.00 69 1011.8
20260510045505 47 60 0.0 0.0 0.00 0.00 0.00 68 1011.6
20260510045016 48 60 0.0 0.0 0.00 0.00 0.00 67 1011.7
20260510044507 48 60 0.0 0.0 0.00 0.00 0.00 67 1011.5
20260510044007 48 60 0.0 0.0 0.00 0.00 0.00 66 1011.5
20260510043507 48 60 0.0 0.0 0.00 0.00 0.00 64 1011.3
20260510043006 49 60 0.0 0.0 0.00 0.00 0.00 64 1011.2
20260510042504 49 60 0.0 0.0 0.00 0.00 0.00 62 1011.1
20260510041508 49 60 0.0 0.0 0.00 0.00 0.00 62 1011.0
20260510040509 49 60 0.0 0.0 0.00 0.00 0.00 62 1010.8
20260510040007 50 60 0.0 1.0 0.00 0.00 0.00 62 1010.7
20260510035506 50 60 0.0 1.0 0.00 0.00 0.00 61 1010.8
20260510035006 50 60 0.0 0.0 0.00 0.00 0.00 62 1010.6
20260510034505 51 60 0.0 0.0 0.00 0.00 0.00 60 1010.7
20260510033505 51 60 0.0 0.0 0.00 0.00 0.00 58 1010.6
20260510033006 51 60 0.0 0.0 0.00 0.00 0.00 58 1010.6
20260510032507 52 60 0.0 0.0 0.00 0.00 0.00 57 1010.5
20260510032006 52 60 0.0 0.0 0.00 0.00 0.00 57 1010.5
20260510031505 52 60 0.0 0.0 0.00 0.00 0.00 55 1010.5
20260510031006 52 60 0.0 0.0 0.00 0.00 0.00 55 1010.4
20260510030507 53 60 0.0 0.0 0.00 0.00 0.00 55 1010.3
20260510030006 53 60 0.0 0.0 0.00 0.00 0.00 54 1010.2
20260510025005 54 60 0.0 0.0 0.00 0.00 0.00 51 1010.0
20260510024505 54 60 0.0 0.0 0.00 0.00 0.00 52 1009.9
20260510024005 54 60 0.0 0.0 0.00 0.00 0.00 51 1009.8
20260510023505 55 60 0.0 0.0 0.00 0.00 0.00 49 1009.8
20260510023006 55 60 0.0 1.0 0.00 0.00 0.00 50 1009.7
20260510022509 55 60 0.0 1.0 0.00 0.00 0.00 50 1009.6
20260510022010 55 61 0.0 2.0 0.00 0.00 0.00 49 1009.5
20260510021506 56 61 0.0 2.0 0.00 0.00 0.00 48 1009.5
20260510021005 56 58 0.0 2.0 0.00 0.00 0.00 48 1009.1
20260510020505 56 55 0.0 2.0 0.00 0.00 0.00 47 1009.1
20260510020005 56 55 0.0 1.0 0.00 0.00 0.00 47 1009.0
20260510015504 57 53 0.0 1.0 0.00 0.00 0.00 48 1009.0
20260510015006 57 54 0.0 3.0 0.00 0.00 0.00 46 1009.0
20260510014505 58 54 0.0 3.0 0.00 0.00 0.00 46 1008.8
20260510014009 58 51 0.0 2.0 0.00 0.00 0.00 46 1008.7
20260510012506 60 32 1.0 5.0 0.00 0.00 0.00 43 1008.2
20260510012007 61 67 1.0 5.0 0.00 0.00 0.00 41 1008.1
20260510011506 63 58 1.0 5.0 0.00 0.00 0.00 39 1007.8
20260510011006 65 23 0.0 5.0 0.00 0.00 0.00 37 1007.6
20260510010505 65 283 1.0 7.0 0.00 0.00 0.00 36 1007.5
20260510010006 65 300 2.0 7.0 0.00 0.00 0.00 36 1007.4
20260510005505 66 263 1.0 7.0 0.00 0.00 0.00 36 1007.4
20260510005005 66 306 1.0 7.0 0.00 0.00 0.00 37 1007.2
20260510004505 66 285 1.0 7.0 0.00 0.00 0.00 36 1007.2
20260510003504 67 274 2.0 11.0 0.00 0.00 0.00 36 1007.0
20260510002506 67 280 1.0 5.0 0.00 0.00 0.00 36 1006.7
20260510002005 68 273 2.0 8.0 0.00 0.00 0.00 36 1006.6
20260510001507 68 319 2.0 8.0 0.00 0.00 0.00 35 1006.5
20260510001005 68 282 2.0 9.0 0.00 0.00 0.00 36 1006.4
20260510000507 68 277 2.0 9.0 0.00 0.00 0.00 35 1006.3
20260510000022 68 279 1.0 4.0 0.00 0.00 0.00 36 1006.2
20260509235506 69 286 2.0 5.0 0.00 0.00 0.00 35 1006.2
20260509235009 69 284 2.0 8.0 0.00 0.00 0.00 35 1006.0
20260509234506 69 290 3.0 8.0 0.00 0.00 0.00 34 1006.0
20260509233505 70 285 2.0 8.0 0.00 0.00 0.00 35 1005.7
20260509232506 70 298 3.0 11.0 0.00 0.00 0.00 35 1005.6
20260509232007 70 288 3.0 10.0 0.00 0.00 0.00 33 1005.6
20260509231505 71 285 3.0 11.0 0.00 0.00 0.00 33 1005.5
20260509231005 71 302 3.0 11.0 0.00 0.00 0.00 33 1005.4
20260509230505 72 290 3.0 8.0 0.00 0.00 0.00 33 1005.4
20260509225506 72 275 3.0 13.0 0.00 0.00 0.00 31 1005.4
20260509225006 73 265 3.0 13.0 0.00 0.00 0.00 33 1005.6
20260509224505 72 272 3.0 13.0 0.00 0.00 0.00 33 1005.1
20260509223007 73 280 4.0 13.0 0.00 0.00 0.00 30 1005.1
20260509222505 74 296 4.0 14.0 0.00 0.00 0.00 29 1005.0
20260509221505 75 292 5.0 18.0 0.00 0.00 0.00 29 1005.0
20260509221006 75 293 5.0 17.0 0.00 0.00 0.00 30 1004.9
20260509220008 75 306 6.0 19.0 0.00 0.00 0.00 30 1004.7
20260509215504 75 292 6.0 19.0 0.00 0.00 0.00 29 1004.6
20260509215005 75 268 4.0 20.0 0.00 0.00 0.00 29 1004.6
20260509214506 75 279 4.0 20.0 0.00 0.00 0.00 28 1004.6
20260509214006 76 240 4.0 18.0 0.00 0.00 0.00 31 1004.2
20260509213508 76 286 4.0 10.0 0.00 0.00 0.00 31 1004.2
20260509213005 75 286 5.0 13.0 0.00 0.00 0.00 30 1004.2
20260509212504 76 294 5.0 14.0 0.00 0.00 0.00 28 1004.1
20260509212006 76 281 5.0 16.0 0.00 0.00 0.00 30 1004.2
20260509211006 76 291 5.0 13.0 0.00 0.00 0.00 26 1004.1
20260509210505 76 262 5.0 16.0 0.00 0.00 0.00 29 1004.0
20260509210006 76 302 5.0 17.0 0.00 0.00 0.00 31 1004.0
20260509205505 75 290 6.0 17.0 0.00 0.00 0.00 29 1003.9